Sanford, FL

3:24 PM EST on February 19, 2018 (GMT -0500)
Orlando Sanford

Weather History for KSFB - February, 2014

Change the Weather History Date:

Monday, February 24, 2014

  Actual Average Record
Temperature  
Mean Temperature 68 °F -  
Max Temperature 73 °F 72 °F 89 °F (1962)
Min Temperature 59 °F 49 °F 28 °F (1989)
Cooling Degree Days 2    
Growing Degree Days 18 (Base 50)    
Moisture  
Dew Point 63 °F    
Average Humidity 88    
Maximum Humidity 100    
Minimum Humidity 76    
Precipitation  
Precipitation 0.00 in - - ()
Sea Level Pressure  
Sea Level Pressure 30.03 in    
Wind  
Wind Speed 6 mph (WNW)    
Max Wind Speed 10 mph    
Max Gust Speed -    
Visibility 10 miles    
Events      
Averages and records for this station are not official NWS values.
T = Trace of Precipitation, MM = Missing Value Source: NWS Daily Summary

Daily Weather History Graph

Daily Weather History Graph

Search for Another Location

Airport or City:

Trip Planner

Search our weather history database for the weather conditions in past years. The results will help you decide how hot, cold, wet, or windy it might be!

Date:

Astronomy

Feb. 24, 2014 Rise Set
Actual Time 6:55 AM EST 6:21 PM EST
Civil Twilight 6:31 AM EST 6:45 PM EST
Nautical Twilight 6:03 AM EST 7:12 PM EST
Astronomical Twilight 5:36 AM EST 7:40 PM EST
Moon 2:38 AM EST (2/24) 1:35 PM EST (2/24)
Length of Visible Light 12h 14m
Length of Day
11h 26m
Waning Crescent, 28% of the Moon is Illuminated
Feb 24
Waning Crescent
Mar 1
New
Mar 8
First Quarter
Mar 16
Full
Mar 23
Last Quarter

Hourly Weather History & Observations

Time (EST) Temp. Dew Point Humidity Pressure Visibility Wind Dir Wind Speed Gust Speed Precip Events Conditions
12:53 AM 64.9 °F 64.0 °F 97% 30.04 in 10.0 mi WSW 4.6 mph - N/A   Overcast
1:30 AM 64.0 °F 64.0 °F 100% 30.01 in 10.0 mi South 6.9 mph - N/A   Scattered Clouds
1:53 AM 64.0 °F 64.0 °F 100% 30.00 in 10.0 mi SSW 4.6 mph - N/A   Clear
2:00 AM 64.0 °F 64.0 °F 100% 29.99 in 10.0 mi South 5.8 mph - N/A   Partly Cloudy
2:53 AM 64.0 °F 64.0 °F 100% 29.97 in 10.0 mi Variable 3.5 mph - N/A   Mostly Cloudy
3:53 AM 64.0 °F 63.0 °F 96% 29.97 in 10.0 mi SSW 3.5 mph - N/A   Clear
4:53 AM 64.0 °F 63.0 °F 96% 29.98 in 10.0 mi South 3.5 mph - N/A   Clear
5:53 AM 63.0 °F 62.1 °F 97% 30.01 in 9.0 mi WSW 4.6 mph - N/A   Clear
6:53 AM 63.0 °F 62.1 °F 97% 30.02 in 10.0 mi WSW 5.8 mph - N/A   Clear
7:53 AM 64.9 °F 64.0 °F 97% 30.03 in 10.0 mi SW 6.9 mph - N/A   Mostly Cloudy
8:53 AM 68.0 °F 66.0 °F 93% 30.04 in 10.0 mi SW 6.9 mph - N/A   Overcast
9:53 AM 73.0 °F 64.9 °F 76% 30.05 in 10.0 mi WSW 6.9 mph - N/A   Scattered Clouds
10:20 AM 72.0 °F 64.0 °F 76% 30.06 in 10.0 mi WSW 8.1 mph - N/A   Mostly Cloudy
10:53 AM 72.0 °F 64.0 °F 76% 30.06 in 10.0 mi West 6.9 mph - N/A   Overcast
11:53 AM 72.0 °F 64.0 °F 76% 30.06 in 10.0 mi NW 9.2 mph - N/A   Overcast
12:53 PM 71.1 °F 64.9 °F 81% 30.04 in 10.0 mi NNW 5.8 mph - N/A   Overcast
1:53 PM 73.0 °F 64.9 °F 76% 30.01 in 10.0 mi NNW 6.9 mph - N/A   Overcast
2:53 PM 72.0 °F 64.9 °F 78% 30.01 in 10.0 mi North 10.4 mph - N/A   Overcast
3:53 PM 69.1 °F 64.0 °F 84% 30.01 in 10.0 mi NNE 9.2 mph - N/A   Overcast
4:53 PM 70.0 °F 62.1 °F 76% 30.02 in 10.0 mi NNE 9.2 mph - N/A   Overcast
5:53 PM 69.1 °F 62.1 °F 78% 30.04 in 10.0 mi NNE 8.1 mph - N/A   Overcast
6:53 PM 66.9 °F 61.0 °F 81% 30.06 in 10.0 mi North 5.8 mph - N/A   Mostly Cloudy
7:12 PM 66.0 °F 61.0 °F 84% 30.05 in 10.0 mi NE 4.6 mph - N/A   Mostly Cloudy
7:53 PM 64.9 °F 61.0 °F 87% 30.07 in 10.0 mi NNE 4.6 mph - N/A   Scattered Clouds
7:57 PM 64.9 °F 61.0 °F 87% 30.07 in 10.0 mi NE 3.5 mph - N/A   Mostly Cloudy
8:53 PM 63.0 °F 61.0 °F 93% 30.07 in 10.0 mi ENE 3.5 mph - N/A   Partly Cloudy
9:53 PM 63.0 °F 61.0 °F 93% 30.09 in 10.0 mi Calm Calm - N/A   Clear
10:53 PM 62.1 °F 60.1 °F 93% 30.08 in 10.0 mi Calm Calm - N/A   Clear
11:53 PM 59.0 °F 57.9 °F 96% 30.08 in 10.0 mi North 3.5 mph - N/A   Clear